This demonstration page uses our WeatherBlox Daily Observations layout. Learn more.

Left ArrowRight Arrow

Hourly Observations for September 24, 2018

Temp ( °F °C ) Dew Point ( °F °C ) Humidity (%) Winds ( mph kmh ) Pressure ( in mb ) Visibility ( mi km ) Precip ( " mm )
12:57 am 00:57 Clear 62 16.7 56 13.3 80 80 S 14 22 29.83 1010 10 16 0.00 0.00
1:57 am 01:57 Clear 61 16.1 56 13.3 84 84 S 15 24 29.83 1010 10 16 0.00 0.00
2:57 am 02:57 Clear 60 15.6 55 12.8 84 84 S 12 19 29.81 1010 10 16 0.00 0.00
3:57 am 03:57 Clear 58 14.4 55 12.8 90 90 SSE 13 20 29.80 1009 10 16 0.00 0.00
4:57 am 04:57 Clear 58 14.4 55 12.8 90 90 S 12 19 29.79 1009 10 16 0.00 0.00
5:57 am 05:57 Clear 58 14.4 55 12.8 90 90 SSE 12 19 29.78 1008 10 16 0.00 0.00
6:57 am 06:57 Clear 58 14.4 56 13.3 93 93 S 14 22 29.78 1009 10 16 0.00 0.00
7:06 am 07:06 Partly Cloudy 57 14 55 13 94 94 S 14 22 29.83 1010 10 16 0.00 0.00
7:15 am 07:15 Mostly Cloudy 57 14 55 13 94 94 S 16 26 29.83 1010 10 16 0.00 0.00
7:57 am 07:57 Cloudy 59 15 56 13.3 90 90 SSW 10 17 29.82 1010 10 16 0.00 0.00
8:57 am 08:57 Cloudy 60 15.6 57 13.9 90 90 SW 9 15 29.84 1010 10 16 0.00 0.00
9:30 am 09:30 Cloudy 61 16 57 14 88 88 SSW 9 15 29.83 1010 10 16 0.00 0.00
9:57 am 09:57 Cloudy 62 16.7 58 14.4 86 86 S 15 24 29.84 1011 10 16 0.00 0.00
10:20 am 10:20 Mostly Cloudy 64 18 57 14 78 78 SSW 16 26 29.83 1010 10 16 0.00 0.00
10:57 am 10:57 Cloudy 65 18.3 57 13.9 76 76 SW 10 17 29.85 1011 10 16 0.00 0.00
11:57 am 11:57 Cloudy 66 18.9 57 13.9 73 73 WNW 7 11 29.86 1011 10 16 0.00 0.00
12:57 pm 12:57 Cloudy 62 16.7 53 11.7 73 73 N 12 19 29.88 1012 10 16 0.00 0.00
2:57 pm 14:57 Sunny 69 20.6 55 12.8 61 61 VRB 3 6 29.81 1010 10 16 0.00 0.00
3:57 pm 15:57 Sunny 71 21.7 55 12.8 57 57 SE 15 24 29.77 1008 10 16 0.00 0.00
4:57 pm 16:57 Sunny 71 21.7 56 13.3 59 59 ESE 5 7 29.80 1009 10 16 0.00 0.00
5:57 pm 17:57 Mostly Cloudy 72 22.2 56 13.3 57 57 VRB 5 7 29.81 1010 10 16 0.00 0.00
6:57 pm 18:57 Sunny 69 20.6 56 13.3 63 63 NNE 8 13 29.82 1010 10 16 0.00 0.00
7:57 pm 19:57 Clear 62 16.7 54 12.2 75 75 N 9 15 29.83 1010 10 16 0.00 0.00
8:57 pm 20:57 Clear 60 15.6 54 12.2 80 80 NNE 8 13 29.85 1011 10 16 0.00 0.00
9:57 pm 21:57 Clear 60 15.6 54 12.2 80 80 N 8 13 29.88 1012 10 16 0.00 0.00
10:57 pm 22:57 Clear 59 15 54 12.2 83 83 NNE 9 15 29.89 1012 10 16 0.00 0.00
11:57 pm 23:57 Mostly Cloudy 58 14.4 53 11.7 84 84 NE 16 26 29.89 1012 10 16 0.00 0.00

Powered by AerisWeather